FW5359 Weather Reports


time (UTC)temp
C
wind
direction
speed
KPH
gust
KPH
rain 1hr
cm
rain 24hr
cm
rain mn
cm
humidity
%
barometer
mb
20260508082800 17 66 1.6 4.8 0.00 0.00 0.00 80 1014.8
20260508082254 17 66 1.6 4.8 0.00 0.00 0.00 80 1015.0
20260508081747 17 66 1.6 6.4 0.00 0.00 0.00 80 1014.9
20260508081242 17 66 3.2 9.7 0.00 0.00 0.00 80 1015.0
20260508080736 17 66 3.2 9.7 0.00 0.00 0.00 80 1015.0
20260508080230 17 74 3.2 6.4 0.00 0.00 0.00 77 1015.0
20260508075724 17 74 1.6 6.4 0.00 0.00 0.00 78 1015.3
20260508075218 17 74 1.6 4.8 0.00 0.00 0.00 77 1015.2
20260508074712 17 74 0.0 3.2 0.00 0.00 0.00 78 1015.3
20260508074205 17 74 0.0 3.2 0.00 0.00 0.00 77 1015.3
20260508073700 17 74 1.6 4.8 0.00 0.00 0.00 77 1015.5
20260508073154 17 74 1.6 6.4 0.00 0.00 0.00 77 1015.7
20260508072648 17 74 1.6 6.4 0.00 0.00 0.00 76 1015.6
20260508072141 17 74 1.6 4.8 0.00 0.00 0.00 76 1015.6
20260508071636 17 74 1.6 4.8 0.00 0.00 0.00 76 1015.6
20260508071130 17 74 1.6 4.8 0.00 0.00 0.00 75 1015.7
20260508070625 17 74 1.6 4.8 0.00 0.00 0.00 75 1015.8
20260508070349 17 74 1.6 3.2 0.00 0.00 0.00 75 1015.7
20260508065611 17 74 1.6 3.2 0.00 0.00 0.00 75 1015.7
20260508065105 17 74 0.0 3.2 0.00 0.00 0.00 75 1015.7
20260508064600 17 74 0.0 4.8 0.00 0.00 0.00 75 1015.8
20260508064325 17 74 0.0 4.8 0.00 0.00 0.00 74 1015.8
20260508063819 17 74 0.0 0.0 0.00 0.00 0.00 74 1015.9
20260508063041 17 74 0.0 0.0 0.00 0.00 0.00 74 1016.1
20260508062542 17 74 0.0 0.0 0.00 0.00 0.00 74 1015.9
20260508062040 17 74 1.6 8.0 0.00 0.00 0.00 74 1015.5
20260508061538 17 74 1.6 8.0 0.00 0.00 0.00 74 1015.4
20260508061036 17 74 1.6 8.0 0.00 0.00 0.00 74 1015.3
20260508060534 17 74 3.2 8.0 0.00 0.00 0.00 74 1015.0
20260508060034 17 76 3.2 8.0 0.00 0.00 0.00 74 1015.0
20260508055534 17 67 3.2 9.7 0.00 0.00 0.00 74 1014.7
20260508055032 17 61 1.6 9.7 0.00 0.00 0.00 74 1015.4
20260508054532 17 351 0.0 4.8 0.00 0.00 0.00 74 1015.8
20260508054032 17 348 0.0 3.2 0.00 0.00 0.00 73 1015.9
20260508053532 17 348 1.6 3.2 0.00 0.00 0.00 73 1016.0
20260508053303 18 348 0.0 1.6 0.00 0.00 0.00 73 1016.1
20260508052532 18 348 0.0 3.2 0.00 0.00 0.00 73 1016.2
20260508052032 17 348 0.0 3.2 0.00 0.00 0.00 73 1016.7
20260508051530 17 348 0.0 3.2 0.00 0.00 0.00 72 1016.9
20260508051030 17 348 0.0 3.2 0.00 0.00 0.00 72 1016.6
20260508050532 17 348 0.0 0.0 0.00 0.00 0.00 72 1016.4
20260508050305 17 348 0.0 1.6 0.00 0.00 0.00 72 1016.4
20260508045759 17 348 0.0 4.8 0.00 0.00 0.00 72 1016.1
20260508045021 17 348 1.6 4.8 0.00 0.00 0.00 72 1016.1
20260508044516 17 347 1.6 8.0 0.00 0.00 0.00 72 1016.3
20260508044009 17 347 1.6 8.0 0.00 0.00 0.00 72 1016.5
20260508043503 17 290 3.2 12.9 0.00 0.00 0.00 73 1016.4
20260508043228 17 289 4.8 12.9 0.00 0.00 0.00 73 1016.7
20260508042452 17 304 3.2 8.0 0.00 0.00 0.00 73 1016.2
20260508041946 17 74 3.2 8.0 0.00 0.00 0.00 72 1015.0
20260508041440 17 74 3.2 8.0 0.00 0.00 0.00 72 1014.7
20260508040933 17 74 3.2 12.9 0.00 0.00 0.00 72 1014.6
20260508040427 17 74 3.2 12.9 0.00 0.00 0.00 72 1014.6
20260508035921 17 74 4.8 12.9 0.00 0.00 0.00 71 1014.3
20260508035415 17 91 4.8 12.9 0.00 0.00 0.00 71 1014.4
20260508034910 17 90 3.2 11.3 0.00 0.00 0.00 71 1014.8
20260508034634 18 61 3.2 8.0 0.00 0.00 0.00 72 1015.3
20260508033857 18 59 3.2 8.0 0.00 0.00 0.00 72 1015.3
20260508033351 18 46 3.2 8.0 0.00 0.00 0.00 72 1015.6
20260508033116 18 41 3.2 8.0 0.00 0.00 0.00 72 1015.7
20260508032339 18 40 1.6 6.4 0.00 0.00 0.00 72 1015.6
20260508031833 18 38 1.6 4.8 0.00 0.00 0.00 72 1015.8
20260508031328 18 38 1.6 4.8 0.00 0.00 0.00 71 1016.0
20260508030822 18 38 1.6 8.0 0.00 0.00 0.00 71 1016.2
20260508030316 18 38 1.6 8.0 0.00 0.00 0.00 71 1016.3
20260508025810 18 37 0.0 4.8 0.00 0.00 0.00 71 1016.4
20260508024758 18 37 0.0 0.0 0.00 0.00 0.00 71 1016.5
20260508024251 18 37 0.0 0.0 0.00 0.00 0.00 71 1016.3
20260508023745 18 37 0.0 1.6 0.00 0.00 0.00 70 1016.1
20260508023240 18 37 0.0 3.2 0.00 0.00 0.00 70 1016.1
20260508022734 18 37 0.0 4.8 0.00 0.00 0.00 69 1016.2
20260508022228 18 37 0.0 4.8 0.00 0.00 0.00 70 1016.2
20260508021721 18 37 0.0 0.0 0.00 0.00 0.00 70 1016.1
20260508021448 18 37 0.0 0.0 0.00 0.00 0.00 70 1015.8
20260508020717 18 37 0.0 0.0 0.00 0.00 0.00 70 1015.9
20260508020215 18 37 0.0 0.0 0.00 0.00 0.00 70 1016.0
20260508015713 18 37 0.0 0.0 0.00 0.00 0.00 70 1015.9
20260508015212 18 37 0.0 0.0 0.00 0.00 0.00 70 1015.4
20260508014712 18 37 0.0 0.0 0.00 0.00 0.00 69 1015.0
20260508014209 18 37 1.6 6.4 0.00 0.00 0.00 69 1015.3
20260508013709 18 37 1.6 6.4 0.00 0.00 0.00 68 1015.2
20260508013438 18 37 1.6 8.0 0.00 0.00 0.00 68 1015.0
20260508012707 18 37 1.6 8.0 0.00 0.00 0.00 68 1015.0
20260508012207 18 37 1.6 6.4 0.00 0.00 0.00 68 1014.9
20260508011707 18 36 1.6 4.8 0.00 0.00 0.00 69 1015.0
20260508011207 18 34 1.6 6.4 0.00 0.00 0.00 68 1014.8
20260508010703 18 30 1.6 8.0 0.00 0.00 0.00 69 1014.9
20260508010203 18 30 3.2 8.0 0.00 0.00 0.00 69 1014.7
20260508005702 18 28 4.8 12.9 0.00 0.00 0.00 70 1014.5
20260508005203 18 37 4.8 12.9 0.00 0.00 0.00 69 1014.3
20260508004203 19 116 3.2 11.3 0.00 0.00 0.00 69 1013.2
20260508003703 19 115 3.2 11.3 0.00 0.00 0.00 68 1013.1
20260508001657 19 86 4.8 12.9 0.00 0.00 0.00 68 1013.2
20260508001428 19 84 4.8 12.9 0.00 0.00 0.00 67 1013.9
20260508000926 19 90 4.8 11.3 0.00 0.00 0.00 67 1014.2
20260508000154 19 77 4.8 11.3 0.00 0.00 0.00 67 1014.4
20260507235655 19 74 4.8 14.5 0.00 0.00 0.00 66 1014.6
20260507235425 20 91 4.8 14.5 0.00 0.00 0.00 66 1014.7
20260507234652 20 78 3.2 14.5 0.00 0.00 0.00 66 1014.6
20260507234426 20 98 3.2 9.7 0.00 0.00 0.00 67 1015.2
20260507233651 20 84 3.2 9.7 0.00 0.00 0.00 67 1015.4
20260507233421 20 88 3.2 12.9 0.00 0.00 0.00 66 1015.7
20260507232648 20 61 4.8 16.1 0.00 0.00 0.00 66 1015.8
20260507232148 20 67 4.8 16.1 0.00 0.00 0.00 66 1015.9
20260507231649 20 75 4.8 16.1 0.00 0.00 0.00 66 1015.8
20260507231149 20 65 4.8 12.9 0.00 0.00 0.00 66 1015.7
20260507230647 20 53 4.8 16.1 0.00 0.00 0.00 66 1015.8
20260507230149 20 44 4.8 16.1 0.00 0.00 0.00 66 1015.8
20260507225641 20 69 4.8 11.3 0.00 0.00 0.00 67 1015.9
20260507225135 20 75 3.2 12.9 0.00 0.00 0.00 67 1016.0
20260507224629 20 25 3.2 12.9 0.00 0.00 0.00 66 1016.2
20260507224353 20 57 3.2 11.3 0.00 0.00 0.00 67 1016.1
20260507223617 20 58 4.8 11.3 0.00 0.00 0.00 66 1016.2
20260507223111 20 71 4.8 12.9 0.00 0.00 0.00 65 1016.2
20260507222605 20 82 4.8 12.9 0.00 0.00 0.00 67 1016.3
20260507222058 20 85 4.8 12.9 0.00 0.00 0.00 67 1016.4
20260507221552 20 60 4.8 14.5 0.00 0.00 0.00 65 1016.5
20260507220813 20 88 6.4 17.7 0.00 0.00 0.00 66 1016.4
20260507220034 20 80 6.4 17.7 0.00 0.00 0.00 66 1016.3
20260507215528 20 96 6.4 14.5 0.00 0.00 0.00 67 1016.2
20260507215023 20 57 6.4 19.3 0.00 0.00 0.00 67 1016.2
20260507214517 20 69 6.4 19.3 0.00 0.00 0.00 67 1016.3
20260507214011 20 43 6.4 17.7 0.00 0.00 0.00 69 1016.4
20260507213735 20 88 4.8 16.1 0.00 0.00 0.00 69 1016.6
20260507213230 20 87 4.8 12.9 0.00 0.00 0.00 69 1016.5
20260507212452 20 103 4.8 12.9 0.00 0.00 0.00 69 1016.7
20260507212217 20 82 6.4 17.7 0.00 0.00 0.00 69 1016.7
20260507211711 20 65 4.8 17.7 0.00 0.00 0.00 70 1016.7
20260507210935 19 65 6.4 17.7 0.00 0.00 0.00 70 1016.7
20260507210429 19 56 6.4 17.7 0.00 0.00 0.00 70 1017.2
20260507205923 19 32 4.8 19.3 0.00 0.00 0.00 71 1017.1
20260507205416 19 60 4.8 19.3 0.00 0.00 0.00 72 1017.1
20260507205142 19 55 6.4 17.7 0.00 0.00 0.00 72 1017.0
20260507204404 19 62 6.4 16.1 0.00 0.00 0.00 72 1017.2
20260507203858 19 69 6.4 16.1 0.00 0.00 0.00 72 1017.0
20260507203629 19 64 6.4 17.7 0.00 0.00 0.00 73 1016.3
20260507202846 19 15 6.4 24.1 0.00 0.00 0.00 73 1016.5
20260507202340 20 74 6.4 24.1 0.00 0.00 0.00 73 1016.5
20260507201835 20 44 6.4 19.3 0.00 0.00 0.00 73 1016.5
20260507201559 20 71 8.0 22.5 0.00 0.00 0.00 73 1016.4
20260507200823 20 92 8.0 22.5 0.00 0.00 0.00 74 1016.6
20260507200317 19 80 6.4 22.5 0.00 0.00 0.00 74 1016.4
20260507195811 19 19 6.4 19.3 0.00 0.00 0.00 76 1016.7
20260507195306 18 44 6.4 19.3 0.00 0.00 0.00 76 1016.8
20260507194758 18 66 8.0 19.3 0.00 0.00 0.00 77 1016.6
20260507193746 17 49 8.0 20.9 0.00 0.00 0.00 77 1017.1
20260507193254 17 69 6.4 19.3 0.00 0.00 0.00 77 1016.9
20260507192734 17 62 4.8 16.1 0.00 0.00 0.00 77 1017.1
20260507192228 17 44 4.8 16.1 0.00 0.00 0.00 77 1017.2
20260507191722 17 40 4.8 16.1 0.00 0.00 0.00 78 1017.5
20260507190943 17 65 6.4 20.9 0.00 0.00 0.00 79 1017.4
20260507190204 17 64 8.0 20.9 0.00 0.00 0.00 78 1017.5
20260507185701 17 46 4.8 19.3 0.00 0.00 0.00 78 1017.5
20260507185153 17 75 6.4 17.7 0.00 0.00 0.00 80 1017.0
20260507184647 17 71 8.0 17.7 0.00 0.00 0.00 80 1016.7
20260507184411 16 75 8.0 17.7 0.00 0.00 0.00 79 1016.8
20260507183634 16 144 8.0 20.9 0.00 0.00 0.00 79 1016.9
20260507183404 16 58 8.0 20.9 0.00 0.00 0.00 79 1017.0
20260507182630 16 78 6.4 20.9 0.00 0.00 0.00 79 1017.2
20260507181630 16 17 4.8 14.5 0.00 0.00 0.00 79 1017.9
20260507181130 16 61 4.8 14.5 0.00 0.00 0.00 80 1017.8
20260507180631 16 96 4.8 16.1 0.00 0.00 0.00 80 1018.1
20260507180129 16 48 6.4 16.1 0.00 0.00 0.00 79 1018.2
20260507175630 16 50 4.8 16.1 0.00 0.00 0.00 79 1018.3
20260507175400 16 51 4.8 14.5 0.00 0.00 0.00 79 1018.4
20260507174630 16 71 4.8 14.5 0.00 0.00 0.00 79 1018.5
20260507174126 16 50 6.4 22.5 0.00 0.00 0.00 79 1018.7
20260507173626 16 67 6.4 22.5 0.00 0.00 0.00 78 1018.5
20260507173126 17 54 6.4 17.7 0.00 0.00 0.00 78 1018.6
20260507172856 17 38 6.4 17.7 0.00 0.00 0.00 78 1018.6
20260507172126 17 59 6.4 17.7 0.00 0.00 0.00 78 1018.4
20260507171126 17 82 6.4 20.9 0.00 0.00 0.00 78 1017.9
20260507170625 17 74 6.4 25.7 0.00 0.00 0.00 80 1018.2
20260507170125 16 86 6.4 25.7 0.00 0.00 0.00 80 1018.1
20260507165626 16 103 6.4 19.3 0.00 0.00 0.00 81 1018.2
20260507164854 16 67 6.4 20.9 0.00 0.00 0.00 81 1018.6
20260507164123 16 51 8.0 20.9 0.00 0.00 0.00 82 1018.5
20260507163624 16 88 8.0 20.9 0.00 0.00 0.00 82 1018.4
20260507163123 16 40 6.4 24.1 0.00 0.00 0.00 83 1018.3
20260507162621 15 40 4.8 24.1 0.00 0.00 0.00 83 1018.4
20260507162352 15 74 4.8 17.7 0.00 0.00 0.00 83 1018.6
20260507161622 15 41 6.4 17.7 0.00 0.00 0.00 84 1018.5
20260507161120 15 46 6.4 17.7 0.00 0.00 0.00 83 1018.3
20260507160620 15 28 6.4 20.9 0.00 0.00 0.00 83 1017.9
20260507160119 15 89 8.0 24.1 0.00 0.00 0.00 83 1018.2
20260507155617 15 59 9.7 24.1 0.00 0.00 0.00 83 1018.4
20260507155118 15 56 6.4 22.5 0.00 0.00 0.00 84 1018.4
20260507154617 15 55 6.4 17.7 0.00 0.00 0.00 84 1018.1
20260507154119 15 61 6.4 17.7 0.00 0.00 0.00 84 1018.2
20260507153611 15 60 6.4 20.9 0.00 0.00 0.00 85 1017.9
20260507153111 15 93 8.0 22.5 0.00 0.00 0.00 85 1017.8
20260507152612 15 24 8.0 22.5 0.00 0.00 0.00 84 1017.6
20260507152112 15 74 6.4 17.7 0.00 0.00 0.00 85 1017.7
20260507151611 15 33 8.0 17.7 0.00 0.00 0.00 85 1017.7
20260507151111 15 49 8.0 32.2 0.00 0.00 0.00 85 1017.7
20260507150611 15 40 8.0 32.2 0.00 0.00 0.00 84 1017.7
20260507150111 15 104 8.0 20.9 0.00 0.00 0.00 85 1017.5
20260507145612 15 80 8.0 20.9 0.00 0.00 0.00 85 1017.6
20260507145111 15 44 8.0 22.5 0.00 0.00 0.00 85 1017.8
20260507144611 15 71 6.4 22.5 0.00 0.00 0.00 85 1017.9
20260507144111 15 74 6.4 17.7 0.00 0.00 0.00 86 1017.6
20260507143612 15 76 8.0 27.4 0.00 0.00 0.00 86 1017.5
20260507143343 15 34 8.0 27.4 0.00 0.00 0.00 86 1017.6
20260507142611 15 5 8.0 22.5 0.00 0.00 0.00 86 1017.5
20260507142110 15 155 8.0 27.4 0.00 0.00 0.00 87 1017.4
20260507141605 15 48 9.7 27.4 0.00 0.00 0.00 87 1017.3
20260507141059 15 74 8.0 24.1 0.00 0.00 0.00 87 1017.4
20260507140553 15 41 6.4 25.7 0.00 0.00 0.00 87 1017.6
20260507140047 15 95 8.0 29.0 0.00 0.00 0.00 87 1017.7
20260507135540 15 93 9.7 29.0 0.00 0.00 0.00 87 1017.6
20260507135035 15 275 8.0 22.5 0.00 0.00 0.00 87 1017.5
20260507134801 15 5 8.0 24.1 0.00 0.00 0.00 87 1017.6
20260507134022 15 80 6.4 25.7 0.00 0.00 0.00 87 1017.6
20260507133747 15 88 6.4 25.7 0.00 0.00 0.00 87 1017.7
20260507133011 15 55 6.4 16.1 0.00 0.00 0.00 87 1017.5
20260507132505 15 74 6.4 20.9 0.00 0.00 0.00 86 1017.6
20260507131959 15 49 8.0 20.9 0.00 0.00 0.00 86 1017.7
20260507131453 15 40 6.4 20.9 0.00 0.00 0.00 86 1017.9
20260507130948 15 82 6.4 20.9 0.00 0.00 0.00 85 1018.2
20260507130441 15 27 8.0 22.5 0.00 0.00 0.00 85 1017.8
20260507125935 15 19 8.0 22.5 0.00 0.00 0.00 85 1017.4
20260507125433 15 51 8.0 25.7 0.00 0.00 0.00 84 1017.3
20260507124933 15 76 8.0 25.7 0.00 0.00 0.00 84 1017.5
20260507124433 16 117 8.0 25.7 0.00 0.00 0.00 83 1017.2
20260507124204 16 57 6.4 24.1 0.00 0.00 0.00 83 1017.4
20260507123433 16 36 4.8 17.7 0.00 0.00 0.00 83 1017.2
20260507122933 16 35 4.8 17.7 0.00 0.00 0.00 83 1017.3
20260507122707 16 47 6.4 19.3 0.00 0.00 0.00 83 1017.2
20260507121933 16 9 6.4 19.3 0.00 0.00 0.00 82 1017.1
20260507121431 16 38 3.2 14.5 0.00 0.00 0.00 82 1017.1
20260507121202 16 84 3.2 19.3 0.00 0.00 0.00 82 1016.8
20260507115931 16 69 6.4 19.3 0.00 0.00 0.00 82 1016.5
20260507115431 16 141 8.0 22.5 0.00 0.00 0.00 82 1016.3
20260507114929 16 57 8.0 27.4 0.00 0.00 0.00 82 1016.1
20260507113929 16 46 8.0 22.5 0.00 0.00 0.00 82 1015.9
20260507113429 16 60 6.4 22.5 0.00 0.00 0.00 82 1016.0
20260507112925 16 5 4.8 16.1 0.00 0.00 0.00 82 1016.1
20260507112425 16 62 4.8 20.9 0.00 0.00 0.00 82 1016.0
20260507111925 16 62 4.8 20.9 0.00 0.00 0.00 82 1016.0
20260507111425 16 67 4.8 17.7 0.00 0.00 0.00 82 1015.9
20260507110925 16 68 6.4 19.3 0.00 0.00 0.00 82 1015.8
20260507110424 16 67 6.4 20.9 0.00 0.00 0.00 82 1015.8
20260507105925 16 71 6.4 20.9 0.00 0.00 0.00 82 1015.8
20260507105425 16 99 6.4 20.9 0.00 0.00 0.00 82 1015.6
20260507104925 16 46 4.8 16.1 0.00 0.00 0.00 82 1015.6
20260507104425 16 51 4.8 19.3 0.00 0.00 0.00 82 1015.7
20260507103925 16 56 4.8 19.3 0.00 0.00 0.00 81 1015.7
20260507103656 16 78 4.8 17.7 0.00 0.00 0.00 82 1015.8
20260507102925 16 78 6.4 17.7 0.00 0.00 0.00 81 1015.9
20260507102425 16 36 4.8 17.7 0.00 0.00 0.00 81 1016.0
20260507101924 16 26 4.8 17.7 0.00 0.00 0.00 82 1015.9
20260507101424 16 64 3.2 16.1 0.00 0.00 0.00 82 1015.9
20260507100925 16 95 3.2 12.9 0.00 0.00 0.00 82 1015.8
20260507100424 16 38 3.2 16.1 0.00 0.00 0.00 82 1015.7
20260507095918 16 39 4.8 16.1 0.00 0.00 0.00 82 1015.7
20260507095412 16 30 4.8 16.1 0.00 0.00 0.00 82 1015.8
20260507094912 16 74 4.8 22.5 0.00 0.00 0.00 82 1015.9
20260507094410 16 13 4.8 22.5 0.00 0.00 0.00 82 1015.6
20260507093913 16 24 4.8 16.1 0.00 0.00 0.00 82 1015.7
20260507093410 16 85 3.2 12.9 0.00 0.00 0.00 82 1015.7
20260507092911 16 64 3.2 12.9 0.00 0.00 0.00 82 1015.8
20260507092411 16 82 3.2 17.7 0.00 0.00 0.00 82 1015.8
20260507091910 16 80 3.2 17.7 0.00 0.00 0.00 82 1015.7
20260507091410 16 31 3.2 12.9 0.00 0.00 0.00 82 1015.6
20260507090911 16 68 4.8 19.3 0.00 0.00 0.00 82 1015.7
20260507090409 16 26 4.8 19.3 0.00 0.00 0.00 82 1015.8
20260507085909 16 76 4.8 14.5 0.00 0.00 0.00 82 1015.7
20260507085409 16 28 4.8 14.5 0.00 0.00 0.00 82 1015.6
20260507084911 16 49 4.8 16.1 0.00 0.00 0.00 82 1015.6
20260507084639 16 34 4.8 16.1 0.00 0.00 0.00 82 1015.8
20260507083907 17 20 4.8 14.5 0.00 0.00 0.00 82 1015.7
20260507083404 17 68 3.2 14.5 0.00 0.00 0.00 82 1015.8